FW8346 Weather Reports


Display with metric or nautical units.
time (UTC)temp
F
wind
direction
speed
MPH
gust
MPH
rain 1hr
in
rain 24hr
in
rain mn
in
humidity
%
barometer
mb
20260507012607 41 284 0.0 2.0 0.00 0.00 0.00 55 1013.9
20260507012101 41 289 0.0 2.0 0.00 0.00 0.00 55 1013.9
20260507011832 42 327 0.0 2.0 0.00 0.00 0.00 54 1013.9
20260507011334 42 213 0.0 0.0 0.00 0.00 0.00 54 1013.9
20260507010830 42 328 0.0 2.0 0.00 0.00 0.00 54 1013.9
20260507010057 42 330 1.0 3.0 0.00 0.00 0.00 54 1013.9
20260507005557 42 240 1.0 3.0 0.00 0.00 0.00 54 1013.9
20260507005329 42 327 0.0 3.0 0.00 0.00 0.00 54 1014.0
20260507004556 42 338 0.0 3.0 0.00 0.00 0.00 54 1013.9
20260507004058 42 279 0.0 4.0 0.00 0.00 0.00 53 1014.0
20260507003826 42 229 0.0 4.0 0.00 0.00 0.00 53 1014.1
20260507003325 42 35 0.0 2.0 0.00 0.00 0.00 53 1014.1
20260507002552 42 296 0.0 4.0 0.00 0.00 0.00 52 1014.1
20260507002050 42 295 1.0 4.0 0.00 0.00 0.00 52 1014.1
20260507001821 42 293 1.0 3.0 0.00 0.00 0.00 52 1014.1
20260507001050 42 288 0.0 3.0 0.00 0.00 0.00 52 1014.1
20260507000548 42 280 0.0 4.0 0.00 0.00 0.00 52 1014.1
20260507000316 42 267 0.0 4.0 0.00 0.00 0.00 51 1014.1
20260506235544 42 201 0.0 3.0 0.00 0.00 0.00 52 1014.1
20260506235046 42 295 0.0 2.0 0.00 0.00 0.00 52 1014.1
20260506234546 42 342 0.0 3.0 0.00 0.00 0.00 52 1014.2
20260506234040 43 289 0.0 4.0 0.00 0.00 0.00 52 1014.2
20260506233534 43 331 1.0 4.0 0.00 0.00 0.00 52 1014.2
20260506233030 43 280 1.0 4.0 0.00 0.00 0.00 51 1014.3
20260506232522 43 280 1.0 4.0 0.00 0.00 0.00 51 1014.3
20260506232015 43 229 0.0 3.0 0.00 0.00 0.00 51 1014.4
20260506231748 43 169 0.0 1.0 0.00 0.00 0.00 52 1014.4
20260506231247 43 276 0.0 3.0 0.00 0.00 0.00 52 1014.3
20260506230516 43 307 1.0 3.0 0.00 0.00 0.00 52 1014.4
20260506230015 43 352 1.0 7.0 0.00 0.00 0.00 52 1014.4
20260506225514 43 335 2.0 7.0 0.00 0.00 0.00 51 1014.5
20260506225014 43 265 1.0 5.0 0.00 0.00 0.00 51 1014.5
20260506224512 43 335 1.0 4.0 0.00 0.00 0.00 51 1014.6
20260506224013 43 340 0.0 4.0 0.00 0.00 0.00 51 1014.6
20260506223511 43 300 1.0 6.0 0.00 0.00 0.00 52 1014.5
20260506223010 43 343 1.0 6.0 0.00 0.00 0.00 51 1014.6
20260506222511 43 317 1.0 6.0 0.00 0.00 0.00 52 1014.6
20260506222010 43 327 1.0 6.0 0.00 0.00 0.00 52 1014.6
20260506221510 43 285 1.0 5.0 0.00 0.00 0.00 52 1014.6
20260506221011 43 305 2.0 6.0 0.00 0.00 0.00 51 1014.7
20260506220509 43 352 1.0 6.0 0.00 0.00 0.00 52 1014.7
20260506220003 43 204 1.0 5.0 0.00 0.00 0.00 51 1014.7
20260506215856 43 322 1.0 7.0 0.00 0.00 0.00 51 1014.7
20260506215745 43 282 2.0 7.0 0.00 0.00 0.00 51 1014.7
20260506214502 43 319 1.0 5.0 0.00 0.00 0.00 51 1014.7
20260506214001 43 293 2.0 5.0 0.00 0.00 0.00 51 1014.7
20260506213501 43 264 2.0 8.0 0.00 0.00 0.00 51 1014.7
20260506213000 43 318 2.0 8.0 0.00 0.00 0.00 52 1014.7
20260506212501 43 297 2.0 6.0 0.00 0.00 0.00 52 1014.7
20260506212002 43 292 2.0 7.0 0.00 0.00 0.00 52 1014.7
20260506211506 44 325 2.0 8.0 0.00 0.00 0.00 51 1014.7
20260506211502 43 295 2.0 8.0 0.00 0.00 0.00 50 1014.7
20260506210500 44 296 1.0 7.0 0.00 0.00 0.00 51 1014.7
20260506205958 44 323 1.0 5.0 0.00 0.00 0.00 50 1014.7
20260506205459 43 270 2.0 5.0 0.00 0.00 0.00 52 1014.7
20260506204959 43 307 2.0 8.0 0.00 0.00 0.00 51 1014.8
20260506204500 43 288 3.0 8.0 0.00 0.00 0.00 50 1014.8
20260506204000 43 299 3.0 9.0 0.00 0.00 0.00 51 1014.8
20260506203459 43 291 2.0 9.0 0.00 0.00 0.00 51 1014.8
20260506203000 43 27 3.0 11.0 0.00 0.00 0.00 50 1014.9
20260506202456 43 326 4.0 11.0 0.00 0.00 0.00 51 1014.8
20260506201955 43 345 5.0 12.0 0.00 0.00 0.00 51 1014.8
20260506201456 43 340 3.0 12.0 0.00 0.00 0.00 52 1014.8
20260506201225 43 338 2.0 8.0 0.00 0.00 0.00 50 1014.9
20260506200454 43 228 1.0 6.0 0.00 0.00 0.00 50 1014.9
20260506195954 43 257 2.0 7.0 0.00 0.00 0.00 50 1014.9
20260506195456 43 303 3.0 10.0 0.00 0.00 0.00 51 1014.9
20260506194954 43 337 3.0 10.0 0.00 0.00 0.00 50 1014.9
20260506194456 43 328 2.0 7.0 0.00 0.00 0.00 50 1014.9
20260506194228 43 226 3.0 7.0 0.00 0.00 0.00 51 1015.0
20260506193454 43 345 3.0 6.0 0.00 0.00 0.00 55 1014.9
20260506192955 42 294 4.0 8.0 0.00 0.00 0.00 50 1015.0
20260506192725 42 314 3.0 8.0 0.00 0.00 0.00 52 1015.0
20260506191952 43 351 2.0 7.0 0.00 0.00 0.00 50 1015.0
20260506191455 42 330 2.0 5.0 0.00 0.00 0.00 50 1015.0
20260506190954 42 319 3.0 12.0 0.00 0.00 0.00 51 1015.0
20260506190454 42 300 4.0 12.0 0.00 0.00 0.00 53 1015.0
20260506185954 42 349 3.0 9.0 0.00 0.00 0.00 50 1015.0
20260506185451 42 244 1.0 5.0 0.00 0.00 0.00 53 1015.0
20260506184948 42 240 2.0 6.0 0.00 0.00 0.00 53 1015.0
20260506184448 41 320 4.0 12.0 0.00 0.00 0.00 55 1015.1
20260506183943 42 338 3.0 12.0 0.00 0.00 0.00 53 1015.0
20260506183437 42 335 1.0 5.0 0.00 0.00 0.00 56 1015.1
20260506182936 41 249 3.0 12.0 0.00 0.00 0.00 54 1015.1
20260506182931 42 119 2.0 12.0 0.00 0.00 0.00 53 1015.1
20260506181928 41 323 3.0 11.0 0.00 0.00 0.00 55 1015.2
20260506181427 41 295 2.0 6.0 0.00 0.00 0.00 56 1015.2
20260506180926 41 270 2.0 8.0 0.00 0.00 0.00 56 1015.2
20260506180425 40 353 4.0 9.0 0.00 0.00 0.00 55 1015.2
20260506175928 40 339 4.0 9.0 0.00 0.00 0.00 55 1015.3
20260506175922 40 44 4.0 9.0 0.00 0.00 0.00 55 1015.3
20260506174921 40 1 4.0 10.0 0.00 0.00 0.00 57 1015.3
20260506174420 40 324 4.0 10.0 0.00 0.00 0.00 57 1015.4
20260506173920 40 345 4.0 10.0 0.00 0.00 0.00 56 1015.4
20260506173420 40 1 2.0 10.0 0.00 0.00 0.00 55 1015.5
20260506172920 40 359 2.0 7.0 0.00 0.00 0.00 58 1015.5
20260506172651 40 268 3.0 7.0 0.00 0.00 0.00 56 1015.5
20260506171921 40 316 3.0 7.0 0.00 0.00 0.00 58 1015.5
20260506171652 40 297 2.0 8.0 0.00 0.00 0.00 57 1015.6
20260506171145 40 276 3.0 8.0 0.00 0.00 0.00 57 1015.6
20260506170408 39 330 4.0 13.0 0.00 0.00 0.00 60 1015.7
20260506170134 39 330 4.0 10.0 0.00 0.00 0.00 59 1015.7
20260506165356 39 356 3.0 10.0 0.00 0.00 0.00 58 1015.7
20260506164850 39 327 3.0 12.0 0.00 0.00 0.00 58 1015.7
20260506164344 39 333 3.0 12.0 0.00 0.00 0.00 58 1015.8
20260506163839 39 326 2.0 5.0 0.00 0.00 0.00 58 1015.7
20260506163333 39 3 2.0 7.0 0.00 0.00 0.00 59 1015.8
20260506162827 39 330 2.0 7.0 0.00 0.00 0.00 60 1015.7
20260506162321 38 308 2.0 9.0 0.00 0.00 0.00 59 1015.8
20260506161815 38 320 2.0 9.0 0.00 0.00 0.00 58 1015.7
20260506161309 38 320 3.0 8.0 0.00 0.00 0.00 58 1015.8
20260506160803 38 307 2.0 8.0 0.00 0.00 0.00 58 1015.8
20260506160256 39 311 3.0 8.0 0.00 0.00 0.00 59 1015.8
20260506160023 38 334 3.0 7.0 0.00 0.00 0.00 59 1015.8
20260506155245 38 329 2.0 7.0 0.00 0.00 0.00 59 1015.8
20260506154739 38 340 3.0 14.0 0.00 0.00 0.00 60 1015.7
20260506154233 38 309 4.0 14.0 0.00 0.00 0.00 58 1015.7
20260506153727 38 321 4.0 11.0 0.00 0.00 0.00 59 1015.7
20260506153221 38 310 3.0 11.0 0.00 0.00 0.00 58 1015.7
20260506152714 38 316 3.0 10.0 0.00 0.00 0.00 60 1015.6
20260506152209 38 347 4.0 10.0 0.00 0.00 0.00 60 1015.6
20260506151703 38 322 4.0 10.0 0.00 0.00 0.00 59 1015.6
20260506151156 38 314 3.0 10.0 0.00 0.00 0.00 63 1015.7
20260506150650 38 342 2.0 7.0 0.00 0.00 0.00 61 1015.6
20260506150415 38 337 2.0 7.0 0.00 0.00 0.00 61 1015.6
20260506145640 38 337 3.0 10.0 0.00 0.00 0.00 60 1015.6
20260506145134 38 340 3.0 10.0 0.00 0.00 0.00 60 1015.6
20260506144627 38 343 2.0 9.0 0.00 0.00 0.00 61 1015.6
20260506144354 38 340 1.0 8.0 0.00 0.00 0.00 61 1015.6
20260506143614 38 288 1.0 6.0 0.00 0.00 0.00 60 1015.5
20260506143109 38 342 1.0 6.0 0.00 0.00 0.00 59 1015.6
20260506142603 38 338 1.0 5.0 0.00 0.00 0.00 60 1015.5
20260506142057 37 307 2.0 9.0 0.00 0.00 0.00 61 1015.5
20260506141551 37 7 3.0 9.0 0.00 0.00 0.00 61 1015.4
20260506141045 37 333 2.0 8.0 0.00 0.00 0.00 63 1015.4
20260506140811 37 318 2.0 7.0 0.00 0.00 0.00 60 1015.4
20260506140032 37 308 1.0 5.0 0.00 0.00 0.00 62 1015.3
20260506135526 37 306 1.0 5.0 0.00 0.00 0.00 60 1015.3
20260506135021 37 328 1.0 5.0 0.00 0.00 0.00 61 1015.3
20260506134515 37 359 1.0 5.0 0.00 0.00 0.00 62 1015.2
20260506134241 37 338 2.0 5.0 0.00 0.00 0.00 60 1015.2
20260506133503 37 297 3.0 7.0 0.00 0.00 0.00 60 1015.2
20260506132957 37 238 3.0 8.0 0.00 0.00 0.00 60 1015.1
20260506132451 37 334 2.0 8.0 0.00 0.00 0.00 61 1015.2
20260506131946 37 306 2.0 6.0 0.00 0.00 0.00 60 1015.1
20260506131438 37 352 3.0 6.0 0.00 0.00 0.00 60 1015.1
20260506131204 37 27 2.0 7.0 0.00 0.00 0.00 61 1015.1
20260506130426 37 339 2.0 7.0 0.00 0.00 0.00 60 1015.1
20260506125921 37 330 3.0 7.0 0.00 0.00 0.00 62 1015.0
20260506125415 37 343 3.0 7.0 0.00 0.00 0.00 65 1015.0
20260506124909 36 341 2.0 6.0 0.00 0.00 0.00 61 1014.9
20260506124404 36 333 2.0 5.0 0.00 0.00 0.00 62 1015.0
20260506123903 36 309 2.0 6.0 0.00 0.00 0.00 62 1014.9
20260506123405 36 320 2.0 6.0 0.00 0.00 0.00 61 1014.9
20260506122905 36 349 3.0 8.0 0.00 0.00 0.00 64 1014.8
20260506122637 36 343 4.0 9.0 0.00 0.00 0.00 62 1014.8
20260506121903 36 335 4.0 9.0 0.00 0.00 0.00 62 1014.7
20260506121404 36 338 3.0 9.0 0.00 0.00 0.00 64 1014.7
20260506120904 36 300 2.0 6.0 0.00 0.00 0.00 63 1014.6
20260506120635 36 344 2.0 6.0 0.00 0.00 0.00 64 1014.6
20260506120134 36 339 2.0 7.0 0.00 0.00 0.00 62 1014.5
20260506115405 36 338 3.0 7.0 0.00 0.00 0.00 64 1014.5
20260506114904 36 304 3.0 6.0 0.00 0.00 0.00 66 1014.5
20260506114405 36 354 3.0 8.0 0.00 0.00 0.00 64 1014.5
20260506113904 36 330 3.0 8.0 0.00 0.00 0.00 66 1014.4
20260506113404 36 333 2.0 7.0 0.00 0.00 0.00 66 1014.3
20260506112905 36 342 2.0 5.0 0.00 0.00 0.00 69 1014.2
20260506112359 36 353 2.0 5.0 0.00 0.00 0.00 66 1014.2
20260506111905 36 322 2.0 6.0 0.00 0.00 0.00 69 1014.0
20260506111900 36 345 2.0 6.0 0.00 0.00 0.00 67 1014.1
20260506110859 36 307 3.0 6.0 0.00 0.00 0.00 65 1014.0
20260506110358 36 336 3.0 6.0 0.00 0.00 0.00 68 1013.9
20260506110128 36 295 2.0 6.0 0.00 0.00 0.00 66 1013.9
20260506105627 36 340 3.0 7.0 0.00 0.00 0.00 65 1013.8
20260506104855 36 338 3.0 7.0 0.00 0.00 0.00 65 1013.7
20260506104355 36 6 2.0 7.0 0.00 0.00 0.00 66 1013.8
20260506103853 36 338 3.0 8.0 0.00 0.00 0.00 65 1013.8
20260506103351 36 348 4.0 8.0 0.00 0.00 0.00 65 1013.7
20260506102850 36 6 5.0 7.0 0.00 0.00 0.00 66 1013.7
20260506102351 37 334 5.0 7.0 0.00 0.00 0.00 65 1013.7
20260506101851 37 16 4.0 7.0 0.00 0.00 0.00 65 1013.7
20260506101345 37 349 4.0 7.0 0.00 0.00 0.00 65 1013.8
20260506100846 37 335 4.0 7.0 0.00 0.00 0.00 65 1013.7
20260506100345 37 345 4.0 7.0 0.00 0.00 0.00 67 1013.8
20260506095845 37 15 5.0 9.0 0.00 0.00 0.00 65 1013.7
20260506095347 37 16 6.0 9.0 0.00 0.00 0.00 69 1013.7
20260506094846 37 27 7.0 12.0 0.00 0.00 0.00 66 1013.6
20260506094347 37 32 7.0 12.0 0.00 0.00 0.00 66 1013.6
20260506093847 37 18 6.0 9.0 0.00 0.00 0.00 64 1013.6
20260506093346 37 345 6.0 9.0 0.00 0.00 0.00 65 1013.6
20260506092842 37 347 5.0 9.0 0.00 0.00 0.00 64 1013.6
20260506092342 37 354 4.0 8.0 0.00 0.00 0.00 66 1013.6
20260506091844 37 29 4.0 7.0 0.00 0.00 0.00 66 1013.6
20260506091341 37 345 4.0 7.0 0.00 0.00 0.00 66 1013.6
20260506091115 37 4 5.0 10.0 0.00 0.00 0.00 66 1013.6
20260506090342 37 359 6.0 10.0 0.00 0.00 0.00 67 1013.6
20260506085846 37 16 6.0 10.0 0.00 0.00 0.00 67 1013.6
20260506085615 37 4 5.0 9.0 0.00 0.00 0.00 67 1013.6
20260506084843 37 352 5.0 9.0 0.00 0.00 0.00 66 1013.5
20260506084342 37 21 5.0 8.0 0.00 0.00 0.00 67 1013.6
20260506084117 37 340 5.0 9.0 0.00 0.00 0.00 68 1013.4
20260506083343 37 335 5.0 9.0 0.00 0.00 0.00 67 1013.4
20260506082842 37 332 5.0 9.0 0.00 0.00 0.00 69 1013.4
20260506082342 37 12 5.0 9.0 0.00 0.00 0.00 69 1013.3
20260506081842 37 340 5.0 9.0 0.00 0.00 0.00 70 1013.3
20260506081343 37 24 5.0 8.0 0.00 0.00 0.00 68 1013.3
20260506080842 38 351 5.0 8.0 0.00 0.00 0.00 69 1013.3
20260506080612 38 16 5.0 10.0 0.00 0.00 0.00 69 1013.3
20260506073338 37 0 2.0 10.0 0.00 0.00 0.00 62 1013.3
20260506072835 37 354 2.0 10.0 0.00 0.00 0.00 61 1013.2
20260506072336 38 311 3.0 7.0 0.00 0.00 0.00 63 1013.3
20260506072110 38 317 3.0 8.0 0.00 0.00 0.00 63 1013.2
20260506071833 38 352 3.0 8.0 0.00 0.00 0.00 62 1013.2
20260506071105 38 344 4.0 9.0 0.00 0.00 0.00 63 1013.2
20260506070606 38 312 3.0 9.0 0.00 0.00 0.00 65 1013.2
20260506062255 38 300 3.0 8.0 0.00 0.00 0.00 62 1013.4
20260506061754 38 327 3.0 8.0 0.00 0.00 0.00 63 1013.3
20260506061253 38 321 4.0 8.0 0.00 0.00 0.00 62 1013.3
20260506060759 38 309 2.0 9.0 0.00 0.00 0.00 61 1013.2
20260506060754 38 318 4.0 9.0 0.00 0.00 0.00 62 1013.2
20260506051249 38 303 1.0 14.0 0.00 0.00 0.00 62 1013.1
20260506050747 38 334 1.0 5.0 0.00 0.00 0.00 59 1013.0
20260506050523 38 354 2.0 6.0 0.00 0.00 0.00 60 1012.9
20260506050248 38 326 2.0 6.0 0.00 0.00 0.00 60 1012.9
20260506045007 37 340 0.0 2.0 0.00 0.00 0.00 60 1013.0
20260506044500 38 342 0.0 2.0 0.00 0.00 0.00 59 1013.0
20260506043956 38 330 1.0 3.0 0.00 0.00 0.00 59 1013.0
20260506043218 38 297 1.0 9.0 0.00 0.00 0.00 59 1013.0
20260506042711 38 319 2.0 9.0 0.00 0.00 0.00 59 1012.9
20260506042205 38 336 2.0 6.0 0.00 0.00 0.00 61 1013.0
20260506041700 38 314 3.0 7.0 0.00 0.00 0.00 58 1013.0
20260506041154 38 337 3.0 9.0 0.00 0.00 0.00 59 1012.9
20260506040648 38 332 4.0 10.0 0.00 0.00 0.00 59 1012.9
20260506040142 38 323 2.0 10.0 0.00 0.00 0.00 59 1012.7
20260506035636 38 303 2.0 7.0 0.00 0.00 0.00 59 1012.9
20260506035130 38 288 4.0 9.0 0.00 0.00 0.00 59 1012.9
20260506034625 38 348 5.0 10.0 0.00 0.00 0.00 59 1012.9
20260506034620 38 337 6.0 13.0 0.00 0.00 0.00 61 1012.9
20260506033612 38 325 7.0 13.0 0.00 0.00 0.00 61 1013.0
20260506033106 38 319 5.0 11.0 0.00 0.00 0.00 64 1013.0
20260506032830 38 333 4.0 11.0 0.00 0.00 0.00 62 1013.0
20260506032054 38 340 4.0 11.0 0.00 0.00 0.00 62 1013.0
20260506031548 38 296 5.0 12.0 0.00 0.00 0.00 62 1013.0
20260506031312 38 339 5.0 12.0 0.00 0.00 0.00 62 1012.9
20260506030536 38 1 5.0 8.0 0.00 0.00 0.00 61 1012.9
20260506030030 38 303 5.0 9.0 0.00 0.00 0.00 60 1012.9
20260506025524 38 317 5.0 10.0 0.00 0.00 0.00 62 1012.7
20260506025018 38 316 4.0 10.0 0.00 0.00 0.00 62 1012.7
20260506024511 38 334 4.0 9.0 0.00 0.00 0.00 59 1012.7
20260506024236 38 327 4.0 9.0 0.00 0.00 0.00 63 1012.6
20260506023500 38 311 4.0 8.0 0.00 0.00 0.00 61 1012.5
20260506022954 38 326 3.0 8.0 0.00 0.00 0.00 58 1012.6
20260506022448 38 342 2.0 7.0 0.00 0.00 0.00 58 1012.5
20260506021942 38 328 3.0 9.0 0.00 0.00 0.00 57 1012.4
20260506021436 38 276 3.0 9.0 0.00 0.00 0.00 59 1012.3
20260506020930 39 318 4.0 10.0 0.00 0.00 0.00 59 1012.2
20260506020423 39 343 4.0 11.0 0.00 0.00 0.00 58 1012.1
20260506020150 39 333 3.0 11.0 0.00 0.00 0.00 56 1012.0
20260506015642 39 330 3.0 9.0 0.00 0.00 0.00 56 1011.9
20260506015238 39 323 6.0 11.0 0.00 0.00 0.00 57 1011.9
20260506015155 39 323 5.0 12.0 0.00 0.00 0.00 57 1011.8
20260506013854 40 335 5.0 12.0 0.00 0.00 0.00 57 1011.8
20260506013347 40 318 5.0 9.0 0.00 0.00 0.00 60 1011.7
20260506012842 40 345 5.0 11.0 0.00 0.00 0.00 60 1011.7